Miscellaneous Local Product
Issued by NWS Hastings, NE

Home | Current Version | Previous Version | Text Only | Print | Product List | Glossary Off
Versions: 1 2 3 4 5 6 7 8 9 10 11 12 13 14 15 16 17 18 19 20 21 22 23 24 25 26 27 28 29 30 31 32 33 34 35 36 37 38 39 40 41 42 43 44 45 46 47 48 49 50

000
AXUS43 KGID 260102
MISGRI

GID CWA HOURLY WEATHER ROUNDUP
NATIONAL WEATHER SERVICE HASTINGS NE
800 PM CDT SAT APR 25 2015

NOTE: "FAIR" INDICATES FEW OR NO CLOUDS BELOW 12,000 FEET WITH NO
SIGNIFICANT WEATHER AND/OR OBSTRUCTIONS TO VISIBILITY.

...SOUTH CENTRAL NEBRASKA...

CITY           SKY/WX    TMP DP  RH WIND       PRES   REMARKS
GRAND ISLAND   CLOUDY    50  46  86 NE10      29.81R
HASTINGS       CLOUDY    50  46  86 NE15      29.78R
KEARNEY        CLOUDY    48  45  87 E12       29.80R
ORD            CLOUDY    55  45  68 E8        29.79R
YORK           CLOUDY    50  46  87 NE10      29.81R
AURORA         CLOUDY    49  48  95 NE16      29.81R
LEXINGTON      CLOUDY    53  48  83 E14       29.78R
HOLDREGE       CLOUDY    50  47  88 E13       29.78R
HEBRON         CLOUDY    51  47  86 NE6       29.79R

...NEBRASKA PANHANDLE...

CITY           SKY/WX    TMP DP  RH WIND       PRES   REMARKS
CHADRON        CLOUDY    54  48  80 E8        29.72R
ALLIANCE       CLOUDY    53  46  77 E15       29.72R
SCOTTSBLUFF    CLOUDY    58  39  49 W14G23    29.72S
SIDNEY         CLOUDY    53  44  71 SE9       29.72F

...WESTERN AND NORTH CENTRAL NEBRASKA...

CITY           SKY/WX    TMP DP  RH WIND       PRES   REMARKS
VALENTINE      CLOUDY    54  46  74 SE15      29.79R
AINSWORTH      CLOUDY    55  46  74 SE9       29.80R
ONEILL         MOCLDY    56  46  69 E6        29.81R
BROKEN BOW     CLOUDY    54  47  77 E13       29.78R
IMPERIAL       PTCLDY    63  48  58 E18G28    29.71R
NORTH PLATTE   NOT AVBL
MCCOOK         MOCLDY    58  50  75 E16       29.74R

...EASTERN NEBRASKA...

CITY           SKY/WX    TMP DP  RH WIND       PRES   REMARKS
NORFOLK        MOCLDY    54  45  71 E9        29.83R
SO SIOUX CITY  CLOUDY    56  40  55 E13       29.84R
TEKAMAH        CLOUDY    54  45  71 E10       29.82R
COLUMBUS       CLOUDY    52  43  71 E10       29.84R
ALBION         PTCLDY    52  44  74 E8        29.82R
OMAHA EPPLEY   CLOUDY    52  45  77 NE14      29.81R
OFFUTT AFB     CLOUDY    51  45  82 NE10G18   29.81R
MILLARD        CLOUDY    52  45  76 NE9       29.82R
LINCOLN        CLOUDY    51  45  79 NE12      29.82R
NEBRASKA CITY  CLOUDY    49  46  90 NE13      29.80R
BEATRICE       CLOUDY    50  46  87 NE9G20    29.78R FOG
FALLS CITY     CLOUDY    49  45  86 NE14G21   29.77R

...NORTHERN KANSAS...

CITY           SKY/WX    TMP DP  RH WIND       PRES   REMARKS
GOODLAND       PTCLDY    65  44  46 E10       29.70R
HILL CITY      PTCLDY    58  51  78 E16       29.74R
NORTON         PTCLDY    55  46  71 E13       29.74R
PHILLIPSBURG   CLOUDY    57  52  82 NE9       29.76S
SMITH CENTER   CLOUDY    52  46  82 NE10      29.77R
HAYS           CLEAR     59  48  67 NE18      29.72R
RUSSELL        PTCLDY    57  52  83 NE15      29.71R
CONCORDIA      CLOUDY    51  47  86 NE10      29.77R
SALINA         CLOUDY    58  50  75 N14       29.74R
TOPEKA         CLOUDY    52  48  86 N12G21    29.75R



USA.gov is the U.S. government's official web portal to all federal, state and local government web resources and services.